Location: Unspecified
(51.0950°N, 12.9690°E)
Time: 16:04:22
(UTC+00:00)

Meteor 2-3 Rocket - Pass Details

Date: 28 October 2021
Orbit: 842 x 885 km, 81.2° (Epoch: 02 December)

Event Time Altitude Azimuth Distance (km) Brightness Sun altitude
Rises 18:20:52 0° 350° (N) 3,423 7.1 -24.3°
Reaches altitude 10° 18:23:25 10° 357° (N) 2,488 6.3 -24.7°
Enters shadow 18:27:19 37° 31° (NNE) 1,314 4.5 -25.3°
